Time,TemperatureF,DewpointF,PressureIn,WindDirection,WindDirectionDegrees,WindSpeedMPH,WindSpeedGustMPH,Humidity,HourlyPrecipIn,Conditions,Clouds,dailyrainin,SoftwareType,DateUTC
2013-09-28 00:13:00,64.0,42.0,29.76,NNE,19,2.0,8.0,45,0.00,,,0.00,,2013-09-28 06:13:00,
2013-09-28 00:22:00,64.0,42.0,29.77,NNE,24,0.0,6.0,45,0.00,,,0.00,,2013-09-28 06:22:00,
2013-09-28 00:42:00,63.0,41.0,29.78,NE,34,1.0,6.0,45,0.00,,,0.00,,2013-09-28 06:42:00,
2013-09-28 00:52:00,63.0,42.0,29.78,North,350,1.0,6.0,46,0.00,,,0.00,,2013-09-28 06:52:00,
2013-09-28 01:12:00,62.0,42.0,29.79,NNW,336,2.0,7.0,47,0.00,,,0.00,,2013-09-28 07:12:00,
2013-09-28 01:22:00,62.0,42.0,29.79,NNW,333,1.0,5.0,48,0.00,,,0.00,,2013-09-28 07:22:00,
2013-09-28 01:42:00,61.0,41.0,29.79,NE,42,1.0,5.0,48,0.00,,,0.00,,2013-09-28 07:42:00,
2013-09-28 01:52:00,61.0,42.0,29.80,North,4,2.0,6.0,49,0.00,,,0.00,,2013-09-28 07:52:00,
2013-09-28 02:13:00,61.0,41.0,29.80,NE,56,1.0,8.0,48,0.00,,,0.00,,2013-09-28 08:13:00,
2013-09-28 02:21:00,61.0,41.0,29.80,ENE,76,1.0,9.0,47,0.00,,,0.00,,2013-09-28 08:21:00,
2013-09-28 02:43:00,61.0,40.0,29.81,NNE,33,2.0,7.0,45,0.00,,,0.00,,2013-09-28 08:43:00,
2013-09-28 02:53:00,60.0,39.0,29.81,North,3,1.0,4.0,46,0.00,,,0.00,,2013-09-28 08:53:00,
2013-09-28 03:11:00,60.0,39.0,29.81,ENE,76,2.0,7.0,45,0.00,,,0.00,,2013-09-28 09:11:00,
2013-09-28 03:22:00,59.0,38.0,29.81,NW,317,0.0,6.0,46,0.00,,,0.00,,2013-09-28 09:22:00,
2013-09-28 03:54:00,59.0,36.0,29.82,NW,318,2.0,8.0,42,0.00,,,0.00,,2013-09-28 09:54:00,
2013-09-28 04:13:00,59.0,34.0,29.82,NNE,29,3.0,8.0,39,0.00,,,0.00,,2013-09-28 10:13:00,
2013-09-28 04:22:00,59.0,35.0,29.83,North,9,1.0,8.0,40,0.00,,,0.00,,2013-09-28 10:22:00,
2013-09-28 04:43:00,58.0,34.0,29.83,NE,34,1.0,8.0,40,0.00,,,0.00,,2013-09-28 10:43:00,
2013-09-28 04:52:00,58.0,34.0,29.84,NE,42,2.0,7.0,40,0.00,,,0.00,,2013-09-28 10:52:00,
2013-09-28 05:12:00,58.0,34.0,29.84,North,354,2.0,10.0,40,0.00,,,0.00,,2013-09-28 11:12:00,
2013-09-28 05:22:00,58.0,34.0,29.85,North,356,2.0,7.0,40,0.00,,,0.00,,2013-09-28 11:22:00,
2013-09-28 05:43:00,58.0,34.0,29.86,NE,46,2.0,6.0,40,0.00,,,0.00,,2013-09-28 11:43:00,
2013-09-28 05:52:00,57.0,34.0,29.87,NNW,340,2.0,9.0,41,0.00,,,0.00,,2013-09-28 11:52:00,
2013-09-28 06:12:00,56.0,32.0,29.87,NNW,328,4.0,9.0,40,0.00,,,0.00,,2013-09-28 12:12:00,
2013-09-28 06:22:00,56.0,32.0,29.88,NE,41,3.0,8.0,40,0.00,,,0.00,,2013-09-28 12:22:00,
2013-09-28 06:42:00,56.0,32.0,29.89,NW,304,1.0,8.0,40,0.00,,,0.00,,2013-09-28 12:42:00,
2013-09-28 06:52:00,55.0,31.0,29.90,North,356,2.0,8.0,39,0.00,,,0.00,,2013-09-28 12:52:00,
2013-09-28 07:12:00,55.0,31.0,29.91,NNW,337,2.0,9.0,40,0.00,,,0.00,,2013-09-28 13:12:00,
2013-09-28 07:22:00,54.0,30.0,29.93,North,351,1.0,5.0,40,0.00,,,0.00,,2013-09-28 13:22:00,
2013-09-28 07:52:00,54.0,30.0,29.94,NE,46,2.0,5.0,39,0.00,,,0.00,,2013-09-28 13:52:00,
2013-09-28 08:12:00,55.0,31.0,29.94,NNE,26,1.0,8.0,39,0.00,,,0.00,,2013-09-28 14:12:00,
2013-09-28 08:21:00,55.0,30.0,29.95,WNW,285,2.0,6.0,38,0.00,,,0.00,,2013-09-28 14:21:00,
2013-09-28 08:42:00,56.0,31.0,29.96,NE,46,2.0,9.0,38,0.00,,,0.00,,2013-09-28 14:42:00,
2013-09-28 08:52:00,56.0,31.0,29.97,NNE,25,1.0,5.0,38,0.00,,,0.00,,2013-09-28 14:52:00,
2013-09-28 09:12:00,58.0,30.0,29.97,NE,56,4.0,14.0,34,0.00,,,0.00,,2013-09-28 15:12:00,
2013-09-28 09:23:00,59.0,31.0,29.98,NE,44,3.0,10.0,34,0.00,,,0.00,,2013-09-28 15:23:00,
2013-09-28 09:44:00,59.0,30.0,29.98,NW,323,4.0,12.0,33,0.00,,,0.00,,2013-09-28 15:44:00,
2013-09-28 09:54:00,61.0,32.0,29.99,NE,41,1.0,8.0,33,0.00,,,0.00,,2013-09-28 15:54:00,
2013-09-28 10:14:00,62.0,33.0,30.00,NE,50,1.0,6.0,33,0.00,,,0.00,,2013-09-28 16:14:00,
2013-09-28 10:24:00,64.0,28.0,30.00,NE,54,3.0,8.0,26,0.00,,,0.00,,2013-09-28 16:24:00,
2013-09-28 10:43:00,65.0,26.0,30.00,NNE,16,3.0,7.0,23,0.00,,,0.00,,2013-09-28 16:43:00,
2013-09-28 10:54:00,66.0,25.0,30.00,NE,46,4.0,10.0,21,0.00,,,0.00,,2013-09-28 16:54:00,
2013-09-28 11:13:00,66.0,25.0,30.00,NE,34,4.0,10.0,21,0.00,,,0.00,,2013-09-28 17:13:00,
2013-09-28 11:23:00,67.0,23.0,30.00,NNE,20,3.0,11.0,19,0.00,,,0.00,,2013-09-28 17:23:00,
2013-09-28 11:43:00,68.0,27.0,30.00,North,352,3.0,9.0,21,0.00,,,0.00,,2013-09-28 17:43:00,
2013-09-28 11:52:00,68.0,25.0,30.00,NE,53,5.0,9.0,20,0.00,,,0.00,,2013-09-28 17:52:00,
2013-09-28 12:12:00,70.0,26.0,30.00,NE,42,4.0,12.0,19,0.00,,,0.00,,2013-09-28 18:12:00,
2013-09-28 12:22:00,70.0,25.0,29.99,NNE,17,2.0,9.0,18,0.00,,,0.00,,2013-09-28 18:22:00,
2013-09-28 12:42:00,71.0,28.0,29.99,West,276,1.0,9.0,20,0.00,,,0.00,,2013-09-28 18:42:00,
2013-09-28 12:52:00,72.0,26.0,29.99,WNW,288,2.0,9.0,18,0.00,,,0.00,,2013-09-28 18:52:00,
2013-09-28 13:11:00,72.0,22.0,29.99,NE,44,2.0,8.0,15,0.00,,,0.00,,2013-09-28 19:11:00,
2013-09-28 13:22:00,72.0,20.0,29.98,NW,309,1.0,10.0,14,0.00,,,0.00,,2013-09-28 19:22:00,
2013-09-28 13:42:00,73.0,26.0,29.98,NE,42,3.0,7.0,17,0.00,,,0.00,,2013-09-28 19:42:00,
2013-09-28 13:52:00,74.0,22.0,29.98,NNW,347,3.0,10.0,14,0.00,,,0.00,,2013-09-28 19:52:00,
2013-09-28 14:12:00,74.0,25.0,29.98,North,356,1.0,7.0,16,0.00,,,0.00,,2013-09-28 20:12:00,
2013-09-28 14:22:00,75.0,24.0,29.97,ESE,103,0.0,4.0,15,0.00,,,0.00,,2013-09-28 20:22:00,
2013-09-28 14:43:00,75.0,26.0,29.96,North,11,1.0,5.0,16,0.00,,,0.00,,2013-09-28 20:43:00,
2013-09-28 14:52:00,76.0,28.0,29.96,ENE,65,1.0,6.0,17,0.00,,,0.00,,2013-09-28 20:52:00,
2013-09-28 15:12:00,76.0,23.0,29.95,NE,39,2.0,5.0,14,0.00,,,0.00,,2013-09-28 21:12:00,
2013-09-28 15:23:00,77.0,27.0,29.95,North,8,1.0,7.0,16,0.00,,,0.00,,2013-09-28 21:23:00,
2013-09-28 15:44:00,77.0,22.0,29.95,North,360,0.0,2.0,13,0.00,,,0.00,,2013-09-28 21:44:00,
2013-09-28 15:55:00,77.0,27.0,29.94,NE,34,2.0,5.0,16,0.00,,,0.00,,2013-09-28 21:55:00,
2013-09-28 16:13:00,77.0,24.0,29.94,NE,40,0.0,1.0,14,0.00,,,0.00,,2013-09-28 22:13:00,
2013-09-28 16:23:00,77.0,26.0,29.94,North,6,0.0,5.0,15,0.00,,,0.00,,2013-09-28 22:23:00,
2013-09-28 16:43:00,76.0,23.0,29.94,North,354,1.0,6.0,14,0.00,,,0.00,,2013-09-28 22:43:00,
2013-09-28 17:12:00,75.0,23.0,29.93,NE,39,1.0,3.0,14,0.00,,,0.00,,2013-09-28 23:12:00,
2013-09-28 17:43:00,73.0,23.0,29.94,NNW,328,0.0,1.0,15,0.00,,,0.00,,2013-09-28 23:43:00,
2013-09-28 21:23:00,52.0,38.0,30.01,SE,129,0.0,0.0,58,0.00,,,0.00,,2013-09-29 03:23:00,
2013-09-28 21:55:00,51.0,38.0,30.03,SE,128,0.0,0.0,60,0.00,,,0.00,,2013-09-29 03:55:00,
2013-09-28 22:02:00,-999.0,-99.9,30.04,SE,129,0.0,0.0,-999,-99.99,,,-99.99,,2013-09-29 04:02:00,
2013-09-28 22:14:00,51.0,38.0,30.04,SE,129,0.0,0.0,61,0.00,,,0.00,,2013-09-29 04:14:00,
2013-09-28 22:24:00,50.0,38.0,30.04,SE,129,0.0,1.0,63,0.00,,,0.00,,2013-09-29 04:24:00,
2013-09-28 22:54:00,51.0,37.0,30.05,SE,129,0.0,1.0,58,0.00,,,0.00,,2013-09-29 04:54:00,
2013-09-28 23:13:00,51.0,36.0,30.06,SE,128,0.0,0.0,57,0.00,,,0.00,,2013-09-29 05:13:00,
2013-09-28 23:22:00,51.0,38.0,30.06,SE,128,0.0,0.0,61,0.00,,,0.00,,2013-09-29 05:22:00,
2013-09-28 23:53:00,48.0,38.0,30.07,SE,128,0.0,0.0,67,0.00,,,0.00,,2013-09-29 05:53:00,